EET,Max TemperatureF,Mean TemperatureF,Min TemperatureF,Max Dew PointF,MeanDew PointF,Min DewpointF,Max Humidity, Mean Humidity, Min Humidity, Max Sea Level PressureIn, Mean Sea Level PressureIn, Min Sea Level PressureIn, Max VisibilityMiles, Mean VisibilityMiles, Min VisibilityMiles, Max Wind SpeedMPH, Mean Wind SpeedMPH, Max Gust SpeedMPH,PrecipitationIn, CloudCover, Events, WindDirDegrees
2013-2-1,37,32,26,32,26,23,93,80,56,29.80,29.73,29.62,6,4,2,8,3,,0.00,6,Snow,124
2013-2-2,33,28,23,32,23,14,100,72,50,30.12,29.88,29.74,5,3,1,26,10,,0.59,6,Fog-Snow,261
2013-2-3,38,25,12,19,13,7,86,70,38,30.33,30.27,30.15,6,4,4,7,5,,0.00,2,,67
2013-2-4,36,24,12,23,17,9,99,82,51,30.36,30.32,30.27,6,5,4,6,3,,0.00,3,,76
2013-2-5,33,23,13,25,20,14,98,86,65,30.27,30.20,29.53,4,3,1,13,3,,0.00,5,Snow,55
2013-2-6,41,28,18,30,25,19,100,78,58,30.21,30.12,29.98,5,4,2,17,5,,0.00,6,,79
2013-2-7,39,36,33,36,32,26,100,84,43,30.21,30.09,29.92,6,4,2,18,8,31,0.00,6,Rain-Snow,176
2013-2-8,40,32,24,30,27,23,100,82,61,30.27,30.23,30.21,6,5,2,8,2,,0.00,2,,72
2013-2-9,37,30,23,30,27,23,100,87,62,30.24,30.20,30.18,6,4,2,7,4,,0.00,5,,65
2013-2-10,39,30,20,30,26,21,100,85,64,30.18,30.12,30.04,4,4,2,7,2,,0.00,6,,70
2013-2-11,41,32,23,32,29,23,100,83,53,30.01,29.94,29.86,5,4,2,14,3,,0.01,4,,164
2013-2-12,42,36,29,34,32,30,100,84,65,30.01,29.90,29.83,5,4,2,18,9,,0.04,6,Rain-Snow,300
2013-2-13,40,33,24,30,26,21,87,72,49,30.27,30.16,30.01,6,5,4,20,8,,0.00,4,Rain-Snow,303
2013-2-14,37,29,21,29,25,18,93,80,60,30.27,30.22,30.12,6,5,2,8,4,,0.00,2,,18
2013-2-15,42,33,24,30,28,23,100,74,52,30.12,29.97,29.83,6,4,4,25,6,,0.00,3,Snow,163
2013-2-16,42,36,30,33,30,23,100,79,38,29.92,29.87,29.80,6,5,4,24,8,,0.01,7,Rain-Snow,211
2013-2-17,37,32,28,32,30,27,100,91,61,29.92,29.90,29.89,4,3,0,9,3,,0.16,8,Snow,69
2013-2-18,37,33,29,30,25,19,100,74,44,29.95,29.89,29.83,6,4,2,13,5,,0.04,6,Snow,118
2013-2-19,37,32,23,30,27,19,100,86,62,30.01,29.94,29.86,5,4,2,12,4,,0.01,6,Snow,55
2013-2-20,37,28,20,25,21,18,93,72,49,30.06,30.02,29.98,6,5,4,8,5,,0.00,6,,23
2013-2-21,38,32,25,32,27,22,100,81,52,30.18,30.07,29.95,6,4,1,10,4,,0.03,6,Snow,202
2013-2-22,37,31,25,29,26,23,87,78,64,30.18,30.10,30.04,12,5,4,8,4,,0.00,6,,27
2013-2-23,41,34,27,34,30,27,100,83,59,30.06,30.02,29.98,12,4,2,10,3,,0.12,6,Snow,319
2013-2-24,40,35,28,34,31,27,100,85,65,30.27,30.15,30.04,5,4,2,8,4,,0.00,6,Snow,17
2013-2-25,39,32,24,31,27,23,93,79,61,30.36,30.33,30.27,6,5,2,8,4,,0.00,4,,45
2013-2-26,37,31,25,28,27,23,93,82,56,30.33,30.24,30.18,6,5,2,8,5,,0.00,4,,24
2013-2-27,40,31,22,32,28,21,100,81,60,30.18,30.08,29.98,6,4,2,9,4,,0.00,4,,44
2013-2-28,46,39,32,34,31,27,93,66,37,29.98,29.89,29.80,6,5,4,21,8,,0.03,6,Rain,187